Lid_Strength_Index
3 3 3 3 3 3 3 3 3 3 2 2 2 2 2 2 2 5 9 7 5 -1 1 7 7 8 9 9 8 9 13 15 13 13 13 10 12 11 10 10 6 5 5 4 2
3 3 3 3 3 3 3 3 3 2 2 2 2 2 2 2 6 7 3 0 -1 -1 7 8 10 10 11 10 9 9 13 13 10 10 11 10 13 11 11 11 7 6 4 3 3
4 4 3 4 3 3 3 3 3 2 2 2 2 2 2 3 10 10 -1 -1 -1 -1 7 8 9 10 12 13 11 10 11 10 9 9 9 10 11 10 11 12 6 6 5 4 3
4 4 4 4 4 4 4 3 3 3 3 3 2 2 2 6 15 7 -2 -2 -2 5 8 9 11 13 12 13 12 12 10 9 9 8 9 9 8 11 11 9 8 4 4 4 4
4 4 4 4 4 4 4 4 3 3 3 3 3 3 5 10 9 6 -2 -2 4 7 9 11 12 13 13 13 12 12 10 9 8 9 10 9 9 9 11 9 8 4 4 4 4
4 4 4 4 4 4 4 4 4 4 4 2 2 3 8 13 8 3 3 5 7 9 9 11 11 11 12 12 12 10 11 10 10 10 10 10 9 9 9 10 9 5 6 5 4
4 4 4 4 4 4 4 4 4 4 4 2 2 4 8 11 5 2 5 8 8 7 9 9 10 10 10 11 11 11 12 11 11 10 10 10 11 10 8 9 10 6 5 4 4
4 4 4 4 4 4 4 4 5 4 4 2 2 5 11 7 6 5 6 7 6 7 8 8 8 10 11 10 10 12 14 15 12 10 9 10 13 9 7 9 10 10 9 8 5
4 4 4 4 4 4 4 5 4 4 3 2 6 8 10 4 5 5 6 7 6 6 7 5 8 10 10 13 14 14 16 15 12 10 10 11 12 9 8 8 8 10 9 8 9
4 4 4 4 4 4 5 4 2 2 3 3 4 10 9 9 5 5 6 6 7 8 9 9 12 13 14 14 16 16 16 15 14 12 11 11 12 9 8 9 9 9 10 10 9
4 4 4 4 4 5 6 8 10 10 7 9 9 9 8 6 3 6 7 7 8 9 12 11 13 15 13 13 13 13 14 15 12 10 12 12 12 10 9 9 9 9 9 10 10
4 4 4 4 4 5 8 10 9 10 11 7 7 7 6 6 8 7 7 9 10 13 12 13 15 12 11 12 12 13 14 14 12 10 12 12 12 10 10 10 9 9 9 9 9
4 4 4 4 5 7 9 7 7 9 13 10 8 8 8 6 8 8 7 9 11 13 13 14 12 10 11 12 13 13 14 13 14 10 11 12 14 12 10 10 9 9 9 9 8
5 5 5 5 8 10 9 6 7 9 15 12 10 8 8 7 9 5 5 8 11 12 12 13 10 10 11 12 12 14 11 11 12 14 16 12 16 14 12 11 10 9 7 7 7
6 5 6 6 10 10 8 7 8 9 20 11 10 8 9 10 9 8 7 8 11 11 11 12 11 11 11 10 9 12 9 11 11 13 16 15 17 15 13 12 10 9 8 8 8
5 5 5 8 10 8 7 8 9 14 19 11 10 11 11 10 9 7 8 7 8 10 11 11 9 9 10 9 9 9 10 11 14 15 17 15 15 16 14 11 10 8 8 8 8
5 5 5 6 8 7 8 9 14 17 11 13 12 11 12 12 11 10 11 13 14 15 15 12 11 10 10 12 11 10 13 16 17 18 17 14 16 15 11 9 9 9 9 9 9
5 5 6 5 6 6 8 11 17 12 12 10 10 10 12 11 11 10 11 14 13 13 15 15 15 12 11 13 14 12 12 16 21 20 17 13 17 15 9 8 7 8 9 9 9
6 8 7 6 5 8 10 16 16 13 11 12 11 13 13 12 11 11 12 13 13 13 15 16 14 11 10 11 12 14 16 13 16 15 17 15 15 11 9 9 9 10 9 9 9
10 9 7 5 7 8 12 13 12 10 10 11 14 12 15 13 12 12 12 11 12 11 12 14 17 12 11 10 11 13 12 15 15 21 22 18 16 17 12 11 10 10 9 9 8
10 9 5 4 7 10 15 14 11 9 9 11 13 13 13 13 12 12 12 11 10 11 11 12 14 15 12 14 14 14 14 14 13 15 19 21 17 11 11 10 10 9 8 8 8
11 11 6 7 11 13 14 11 9 10 9 10 10 11 12 12 13 13 12 10 10 11 13 13 15 18 16 13 11 12 13 14 17 18 17 17 17 9 9 9 8 8 8 7 7
13 12 6 8 14 14 12 10 9 10 10 10 10 10 10 13 15 12 11 9 9 11 13 14 17 19 17 15 12 14 13 13 15 17 18 19 17 9 9 9 7 7 7 7 8
12 12 11 11 12 13 13 12 11 8 10 10 10 10 12 13 13 14 12 10 9 9 8 11 16 17 20 19 15 15 13 13 14 18 17 17 17 14 13 12 10 8 7 6 7
11 13 13 15 13 13 13 12 12 12 10 11 12 12 13 16 14 14 11 11 10 9 11 14 17 16 14 12 11 11 11 11 14 14 16 14 15 13 12 11 10 9 8 7 7
13 13 12 13 12 13 12 13 11 11 12 12 13 11 12 15 13 15 14 14 14 11 12 11 14 13 13 11 11 12 11 11 11 11 12 12 13 8 7 8 8 9 8 7 7
12 11 12 13 13 14 14 13 12 11 10 10 12 13 13 12 11 11 10 11 11 12 12 12 13 15 16 13 13 16 13 12 11 11 11 15 12 8 9 8 8 7 7 7 7